Regional Weather Roundup
Issued by NWS

Home | Current Version | Previous Version | Text Only | Print | Product List | Glossary On
Versions: 1 2 3 4 5 6 7 8 9 10 11 12 13 14 15 16 17 18 19 20 21 22 23 24 25 26 27 28 29 30 31 32 33 34 35 36 37 38 39 40 41 42 43 44 45 46 47 48 49 50
365
ASUS46 KSEW 280810
RWRWA

WASHINGTON REGIONAL WEATHER ROUNDUP
NATIONAL WEATHER SERVICE SEATTLE WA
100 AM PDT FRI APR 28 2017

NOTE:"FAIR" INDICATES FEW OR NO CLOUDS BELOW 12,000 FEET WITH NO
SIGNIFICANT WEATHER AND/OR OBSTRUCTIONS TO VISIBILITY.

WAZ507-509-555>559-280900-
SEATTLE, TACOMA, EVERETT, AND VICINITY

CITY           SKY/WX    TMP DP  RH WIND       PRES   REMARKS
EVERETT        CLOUDY    46  38  73 VRB3      30.21R
BOEING FIELD   MOCLDY    48  39  71 NE5       30.22R
RENTON         CLOUDY    48  39  71 CALM      30.22R
SEATAC AIRPORT CLOUDY    47  41  80 S6        30.22R
JBLM-MCCHORD   CLOUDY    43  43  99 CALM      30.23R
PUYALLUP         N/A     43  43 100 CALM      30.23R
BREMERTON      NOT AVBL
JBLM-FT LEWIS  MOCLDY    43  41  91 SW7       30.26R
TACOMA NARROWS CLOUDY    44  41  89 CALM      30.24R
$$

WAZ001-503-506-510-514-515-280900-
NORTH INTERIOR

CITY           SKY/WX    TMP DP  RH WIND       PRES   REMARKS
BELLINGHAM     CLOUDY    45  41  86 S3        30.19R
FRIDAY HARBOR  PTCLDY    41  39  93 CALM      30.21R
EASTSOUND      PTCLDY    43  39  87 SW3       30.18R
PORT ANGELES   CLEAR     42  35  76 W13       30.22R
EDIZ HOOK      FAIR      47  37  70 W14       30.22R
PORT TOWNSEND  MOCLDY    45  36  70 W6        30.22R
NAS WHIDBEY    PTCLDY    49  40  71 W16       30.24R
ARLINGTON      MOCLDY    46  34  61 CALM      30.24R
BURLINGTON     CLEAR     43  39  87 CALM      30.21R
$$

WAZ020-022-039-040-504-511-512-280900-
SOUTHWEST INTERIOR

CITY           SKY/WX    TMP DP  RH WIND       PRES   REMARKS
SHELTON        CLEAR     40  36  86 CALM      30.20R
OLYMPIA        CLOUDY    42  38  85 SE3       30.23R
CHEHALIS       FAIR      39  37  93 CALM      30.23S
KELSO          PTCLDY    43  40  89 CALM      30.26R
VANCOUVER      CLEAR     44  39  82 CALM      30.26R
SCAPPOOSE, OR  CLEAR     41  37  86 W3        30.25R
PORTLAND, OR   MOCLDY    44  37  76 W5        30.26R
$$

WAZ021-516-517-280900-
WASHINGTON COAST

CITY           SKY/WX    TMP DP  RH WIND       PRES   REMARKS
FORKS          CLOUDY    43  42  97 E5        30.23R
HOQUIAM        MOCLDY    46  40  79 NW7       30.25R
ASTORIA, OR    PTCLDY    42  37  82 W3        30.25S
$$

WAZ019-023-024-040-567>569-280900-
CASCADE MOUNTAINS AND COLUMBIA GORGE

CITY           SKY/WX    TMP DP  RH WIND       PRES   REMARKS
STAMPEDE PASS  FOG       30  30 100 VRB7      30.09R VSB 1/4
TROUTDALE, OR  CLOUDY    45  41  86 CALM      30.26R
THE DALLES, OR CLEAR     47  33  58 W12G21    30.17R
$$

WAZ026-027-041>044-520-521-280900-
EAST SLOPES

CITY           SKY/WX    TMP DP  RH WIND       PRES   REMARKS
OMAK           CLOUDY    44  29  55 N9        30.01R
WENATCHEE      CLEAR     45  26  47 W18       30.05R
ELLENSBURG     CLEAR     42  30  62 NW20G33   30.05R
YAKIMA         CLEAR     48  30  49 NW14      30.08R
SUNNYSIDE ARPT SUNNY     40  31  71 S3        30.08R
$$

WAZ028-034-035-280900-
COLUMBIA BASIN

CITY           SKY/WX    TMP DP  RH WIND       PRES   REMARKS
EPHRATA        CLOUDY    49  22  34 NW21G26   29.99R
MOSES LAKE     CLOUDY    47  26  44 W7        30.01R
PASCO          CLEAR     44  31  60 W3        30.07R
HERMISTON, OR  MOCLDY    45  37  73 W14       30.08R
$$

WAZ036>038-280900-
NORTHEAST WASHINGTON

CITY           SKY/WX    TMP DP  RH WIND       PRES   REMARKS
SPOKANE GEIGER MOCLDY    43  32  65 CALM      29.95R
SPOKANE FELTS  PTCLDY    42  39  89 NE3       29.96R
FAIRCHILD AFB  PTCLDY    40  32  73 SW5       29.94R
COEURDALENE,ID CLOUDY    42  36  79 S5        29.96S
DEER PARK      MOCLDY    35  33  92 CALM      29.95R
$$

WAZ029>033-280900-
SOUTHEAST WASHINGTON

CITY           SKY/WX    TMP DP  RH WIND       PRES   REMARKS
PULLMAN        CLOUDY    42  31  64 W13G22    30.00R
LEWISTON, ID   CLOUDY    44  34  67 S5        30.01R
WALLA WALLA    MOCLDY    45  37  73 S14       30.07R
PENDLETON, OR  CLOUDY    43  34  70 W21G28    30.07R
$$




USA.gov is the U.S. government's official web portal to all federal, state and local government web resources and services.